#timestamp,LO_Frequency,Hit,StdDev 
1688756415.0,286047000.7,N
1688756415.9,286047000.7,N
1688756435.8,286047001.1,N
1688756455.6,286046998.3,N
1688756475.4,286047000.6,N
1688756495.3,286046999.8,N
1688756515.1,286046999.9,N
1688756535.8,286047000.2,N
1688756555.7,286047001.0,N
1688756575.5,286047000.1,N
1688756595.4,286046999.7,N
1688756615.2,286047000.0,N
1688756635.0,286047001.0,N
1688756635.9,286047001.0,N
1688756655.8,286046999.8,N
1688756675.6,286047000.2,N
1688756695.4,286047000.3,N
1688756715.3,286047000.9,N
1688756735.1,286047000.3,N
1688756755.9,286047000.9,N
1688756775.7,286047000.4,N
1688756795.5,286047000.1,N
1688756815.4,286047000.1,N
1688756835.2,286047002.3,N
1688756855.0,286047001.7,N
1688756855.9,286047001.7,N
1688756875.8,286047002.1,N
1688756895.6,286047002.1,N
1688756915.5,286046999.8,N
1688756935.3,286047000.5,N
1688756955.1,286046999.9,N
1688756975.9,286046999.8,N
1688756995.7,286047002.3,N
1688757015.5,286047002.7,N
1688757035.4,286047000.3,N
1688757055.2,286046999.9,N
1688757075.1,286046999.7,N
1688757076.0,286046999.7,N
1688757095.8,286047002.0,N
1688757115.6,286047001.6,N
1688757135.5,286047001.5,N
1688757155.3,286047001.8,N
1688757175.2,286047002.3,N
1688757195.9,286046999.7,N
1688757215.7,286047002.6,N
1688757235.6,286047002.3,N
1688757255.4,286047001.9,N
1688757275.3,286047002.6,N
1688757295.1,286047002.7,N
1688757296.0,286047002.7,N
1688757315.8,286046999.7,N
1688757335.7,286047001.3,N
1688757355.5,286047001.6,N
1688757375.3,286047001.5,N
1688757395.2,286047001.6,N
1688757415.0,286047001.5,N
1688757415.9,286047001.5,N
1688757435.8,286047002.7,N
1688757455.6,286047002.5,N
1688757475.4,286047001.4,N
1688757495.3,286047002.6,N
1688757515.1,286047002.1,N
1688757535.8,286046999.8,N
1688757555.7,286046999.7,N
1688757575.5,286047000.1,N
1688757595.4,286047002.7,N
1688757615.2,286046999.7,N
1688757635.0,286047002.4,N
1688757635.9,286047002.4,N
1688757655.8,286047000.1,N
1688757675.6,286047002.2,N
1688757695.4,286046999.9,N
1688757715.3,286047001.7,N
1688757735.1,286047002.1,N
1688757755.9,286047002.1,N
1688757775.7,286047001.4,N
1688757795.5,286047002.7,N
1688757815.4,286047001.5,N
1688757835.2,286047001.8,N
1688757855.0,286047001.8,N
1688757856.0,286047001.8,N
1688757875.8,286047002.1,N
1688757895.6,286047003.9,Y
1688757915.5,286047001.9,P
1688757935.3,286047002.2,P
1688757955.1,286047002.3,P
1688757975.9,286046999.7,N
1688757995.7,286047000.4,N
1688758015.6,286047000.9,N
1688758035.4,286047001.0,N
1688758055.2,286047002.4,N
1688758075.1,286046999.8,N
1688758106.0,286047002.2,E
1688758115.0,286047000.0,N
1688758115.9,286047000.0,P
1688758135.8,286046998.5,P
1688758155.6,286046999.2,N
1688758175.4,286046996.7,Y
1688758195.3,286046999.3,P
1688758215.1,286046999.5,P
1688758235.8,286046999.4,P
1688758255.7,286046999.1,Y
1688758275.5,286046998.1,P
1688758295.4,286046998.2,N
1688758315.2,286046999.3,N
1688758335.0,286046996.8,Y
1688758335.9,286046996.8,P
1688758355.8,286046997.3,N
1688758375.6,286046997.4,P
1688758395.4,286046996.5,Y
1688758415.3,286047000.9,P
1688758435.1,286046998.7,N
1688758455.9,286046998.5,N
1688758475.7,286046999.4,N
1688758495.5,286046998.7,N
1688758515.4,286046998.9,N
1688758535.2,286046999.6,N
1688758555.0,286046996.9,Y
1688758556.0,286046996.9,P
1688758575.8,286046999.1,N
1688758595.6,286046999.6,N
1688758615.5,286046996.6,Y
1688758635.3,286046999.1,P
1688758655.1,286046996.5,P
1688758675.9,286046996.6,P
1688758695.7,286046999.2,N
1688758715.5,286046996.6,N
1688758735.4,286046997.1,N
1688758755.2,286046996.6,N
1688758775.1,286046997.3,N
1688758776.0,286046997.3,N
1688758795.8,286046997.7,N
1688758815.6,286046998.0,N
1688758835.5,286046995.3,Y
1688758855.3,286046998.4,P
1688758875.1,286046998.5,P
1688758895.9,286046999.1,N
1688758915.7,286046998.9,N
1688758935.6,286046998.7,N
1688758955.4,286046999.2,N
1688758975.2,286046998.9,N
1688758995.1,286046996.5,Y
1688758996.0,286046996.5,P
1688759015.8,286047000.7,N
1688759035.7,286047000.9,N
1688759055.5,286047001.2,N
1688759075.3,286047001.2,N
1688759095.2,286047000.9,N
1688759115.0,286046998.1,N
1688759115.9,286046998.1,N
1688759135.7,286047000.8,N
1688759155.6,286046999.8,N
1688759175.4,286046999.7,N
1688759195.3,286047002.4,N
1688759215.1,286047000.2,N
1688759216.0,286047000.2,N
1688759235.8,286047002.4,N
1688759255.7,286047002.3,N
1688759275.5,286047000.2,N
1688759295.3,286046999.7,N
1688759315.2,286047001.9,N
1688759335.0,286046999.8,N
1688759335.9,286046999.8,N
1688759355.8,286047002.8,N
1688759375.6,286047002.0,N
1688759395.4,286047001.9,N
1688759415.3,286047002.6,N
1688759435.1,286047004.3,N
1688759455.9,286047001.8,N
1688759475.7,286047003.9,N
1688759495.5,286047001.7,N
1688759515.4,286047001.4,N
1688759535.2,286047001.5,N
1688759555.0,286047004.3,N
1688759555.9,286047004.3,N
1688759575.8,286047003.6,N
1688759595.6,286047003.2,N
1688759615.5,286047003.0,N
1688759635.3,286047005.9,Y
1688759655.1,286047001.3,P
1688759675.9,286047001.7,P
1688759695.7,286047004.4,P
1688759715.6,286047004.4,Y
1688759735.4,286047000.6,P
1688759755.2,286046998.5,N
1688759775.1,286046998.6,N
1688759776.0,286046998.6,N
1688759795.8,286046998.4,N
1688759815.7,286047000.9,N
1688759835.5,286047002.3,N
1688759855.3,286047001.8,N
1688759875.2,286047001.5,N
1688759895.9,286047002.2,N
1688759915.7,286047002.5,N
1688759935.6,286047001.4,N
1688759955.4,286047001.7,N
1688759975.3,286047001.8,N
1688759995.1,286047004.4,N
1688759996.0,286047004.4,N
